Simultaneous Nadir Overpasses (SNOs) Predictions

Prediction of SNOs between METOP-B and NOAA-19 Satellite Orbit:

Table of predicted SNOs for the next 14.0 days since TLE Epoch: 8/5/2023
Index Date (METOP-B) Time (METOP-B) Lat,Lon (METOP-B) SZA (METOP-B ) Date (NOAA-19) Time (NOAA-19) Lat,Lon (NOAA-19) SZA (NOAA-19 ) Distance(km) Time Diff (sec)
1 08/09/2023 08:26:24 -80.87, -93.54 113.63 08/09/2023 08:25:14 -80.87, -93.41 113.65 2.31 70
2 08/09/2023 09:17:05 80.86, 73.63 66.36 08/09/2023 09:16:14 80.87, 73.67 66.35 1.01 51
3 08/09/2023 10:07:46 -80.86,-119.04 113.63 08/09/2023 10:07:13 -80.87,-118.93 113.63 2.19 33
4 08/09/2023 10:58:26 80.87, 48.49 66.41 08/09/2023 10:58:12 80.87, 48.52 66.41 0.66 14
5 08/09/2023 11:49:07 -80.87,-144.18 113.59 08/09/2023 11:49:11 -80.88,-144.08 113.57 1.97 4
6 08/09/2023 12:39:47 80.88, 23.35 66.46 08/09/2023 12:40:10 80.88, 23.37 66.46 0.49 23
7 08/09/2023 13:30:28 -80.88,-169.32 113.54 08/09/2023 13:31:09 -80.88,-169.22 113.51 1.81 41



Historial Predications of SNOs between METOP-B and NOAA-19
